sat.trackr.live / text

‹ back to catalog

STARLINK-34668

NORAD 64814 · 2025-150AA

PAYLOAD ACTIVE UNKNOWN

§ Identity

Operator
Country
US
Launch date
2025-07-16
Launch site
AFWTR
Launch vehicle
Mass (kg)
RCS (m²)

Purposes: comms

External: N2YO · Heavens-Above · Gunter

§ Orbital elements

Epoch: 2026-05-25T03:51:30.934080Z

Period
96.11 min
Inclination
70.0006°
Eccentricity
0.0002832
Mean motion
14.98335136 rev/d
Perigee alt
570.1 km
Apogee alt
574.0 km
Semi-major
6,950.2 km
B*
1.9139e-4
RAAN
301.5478°
Arg perigee
264.4503°
Mean anomaly
95.6333°
Rev number
4,797

§ Raw data

STARLINK-346681 64814U 25150AA  26145.16077470  .00002192  00000+0  19139-3 0  99952 64814  70.0006 301.5478 0002832 264.4503  95.6333 14.98335136 47974

JSON: /api/v1/satellites/64814 · /tle

For live sub-satellite position, see the globe view (requires WebGL).

§ Visibility from observer

Set your observer location to see the next 7 days of passes ≥ 10°. The values pass through the URL so the page stays shareable.

No JS? Fill the form by hand. The geolocation button needs JavaScript.